Location: *
(49.6619°S, 177.4603°W)
Time: 05:34:06
(UTC+00:00)

Cosmos 1812 Rocket - Pass Details

Date: 31 January 2023
Orbit: 603 x 631 km, 82.5° (Epoch: 01 April)

Event Time Altitude Azimuth Distance (km) Brightness Sun altitude
Exits shadow 08:55:05 - 4° (N) 2,176 5.9 -11.1°
Reaches altitude 10° 08:55:33 10° 5° (N) 1,988 5.7 -11.2°
Maximum altitude 08:59:54 61° 84° (E) 709 3.6 -11.7°
Drops below altitude 10° 09:04:16 10° 164° (SSE) 2,001 6.6 -12.2°
Sets 09:06:31 0° 167° (SSE) 2,911 7.5 -12.4°
